Weather in Sigulda

Latvia     57˚09′23″N   24˚51′02″E
temp.,
°C
wind,
m/s
gust,
m/s
humid.,
%
clouds,
%
prec.,
mm/h
press.,
hPa
HPBL,
m
28 november, sat
sat2823:00nne389235 0.0 1017500
02:00+1˚nne388454 0.0 1018781
05:00+1˚n499294 0.0 1019644
08:00+1˚nne498396 0.1 1020753
11:00+2˚nne498499 0.0 1021881
14:00+2˚ne489497 0.3 1022577
17:00+1˚ne498791 0.1 1023654
20:00+1˚ne388792 0.1 1024616
29 november, sun
sun2923:00+1˚ne379099 0.0 1025540
02:00+1˚ene378899 0.1 1026612
05:00ene3789100 0.1 1025512
08:00ene378799 0.1 1026602
11:00+1˚ne368282 0.0 1025519
14:00+1˚ne467978 0.1 1025759
17:00−1˚nne368597 0.0 1023542
20:00−1˚ne379498 0.3 1023473
30 november, mon
mon3023:00−1˚ne249094 0.1 1022408
02:00−2˚n129691 0.2 102158
05:00−1˚nw019589 0.1 102084
08:00−1˚ssw129693 0.3 1021121
11:00−1˚ssw249292 0.3 1021284
14:00−1˚s359396 0.6 1021332
17:00−1˚ssw3696100 0.8 1020363
20:00−1˚ssw3795100 1.4 1020463
1 december, tue
tue123:00−1˚ssw4894100 0.5 1020483
02:00ssw4889100 0.5 1020677
05:00ssw498897 0.0 1020651
08:00−1˚s5109498 0.6 1021445
11:00ssw51093100 0.3 1022483
14:00ssw41086100 0.3 1024586
17:00s398796 0.0 1024561
20:00−1˚s398998 0.0 1026492
2 december, wed
wed223:00−1˚s4991100 0.0 1027527
02:00−1˚s3989100 0.0 1027535
05:00−1˚s3887100 0.0 1027525
08:00−1˚s3785100 0.0 1027466
11:00−2˚sse3783100 0.0 1028451
14:00−1˚sse3781100 0.0 1027476
17:00−2˚sse3884100 0.0 1027397
20:00−2˚sse3885100 0.0 1027397